| time (UTC) | temp C | wind direction | speed KPH | gust KPH | rain 1hr cm | rain 24hr cm | rain mn cm | humidity % | barometer mb |
| 20260509032724 | 21 | 303 | 0.0 | 4.8 | 0.00 | 1.57 | 1.57 | 85 | 1010.9 |
| 20260509032704 | 21 | 303 | 1.6 | 4.8 | 0.00 | 1.57 | 1.57 | 85 | 1010.8 |
| 20260509032204 | 21 | 308 | 3.2 | 3.2 | 0.00 | 1.57 | 1.57 | 83 | 1010.5 |
| 20260509031803 | 21 | 312 | 0.0 | 3.2 | 0.00 | 1.57 | 1.57 | 83 | 1010.7 |
| 20260509031704 | 21 | 278 | 1.6 | 1.6 | 0.00 | 1.57 | 1.57 | 83 | 1010.5 |
| 20260509031204 | 21 | 357 | 0.0 | 3.2 | 0.00 | 1.57 | 1.57 | 83 | 1010.5 |
| 20260509030903 | 21 | 267 | 0.0 | 3.2 | 0.00 | 1.57 | 1.57 | 83 | 1010.6 |
| 20260509030704 | 21 | 287 | 0.0 | 3.2 | 0.00 | 1.57 | 1.57 | 83 | 1010.5 |
| 20260509030204 | 21 | 221 | 1.6 | 3.2 | 0.00 | 1.57 | 1.57 | 82 | 1010.5 |
| 20260509030024 | 21 | 325 | 1.6 | 6.4 | 0.00 | 1.57 | 1.57 | 82 | 1010.7 |
| 20260509025704 | 21 | 322 | 3.2 | 8.0 | 0.00 | 1.57 | 1.57 | 82 | 1010.5 |
| 20260509025403 | 21 | 343 | 1.6 | 6.4 | 0.00 | 1.57 | 1.57 | 82 | 1010.6 |
| 20260509025204 | 21 | 346 | 4.8 | 8.0 | 0.00 | 1.57 | 1.57 | 83 | 1010.5 |
| 20260509024703 | 21 | 350 | 3.2 | 4.8 | 0.00 | 1.57 | 1.57 | 83 | 1010.2 |
| 20260509024503 | 21 | 348 | 1.6 | 6.4 | 0.00 | 1.57 | 1.57 | 83 | 1010.4 |
| 20260509024205 | 21 | 342 | 3.2 | 4.8 | 0.00 | 1.57 | 1.57 | 82 | 1010.2 |
| 20260509023705 | 21 | 7 | 1.6 | 3.2 | 0.00 | 1.57 | 1.57 | 81 | 1009.8 |
| 20260509023603 | 21 | 6 | 0.0 | 4.8 | 0.00 | 1.57 | 1.57 | 81 | 1010.1 |
| 20260509023204 | 21 | 343 | 1.6 | 3.2 | 0.00 | 1.57 | 1.57 | 81 | 1009.5 |
| 20260509022704 | 21 | 12 | 3.2 | 4.8 | 0.00 | 1.57 | 1.57 | 80 | 1009.5 |
| 20260509022204 | 21 | 105 | 4.8 | 8.0 | 0.00 | 1.57 | 1.57 | 80 | 1009.1 |
| 20260509021803 | 21 | 157 | 1.6 | 9.7 | 0.00 | 1.57 | 1.57 | 80 | 1009.4 |
| 20260509021704 | 21 | 158 | 0.0 | 9.7 | 0.00 | 1.57 | 1.57 | 80 | 1009.1 |
| 20260509021204 | 21 | 148 | 4.8 | 8.0 | 0.00 | 1.57 | 1.57 | 79 | 1009.1 |
| 20260509020903 | 21 | 182 | 0.0 | 8.0 | 0.00 | 1.57 | 1.57 | 79 | 1009.3 |
| 20260509020704 | 21 | 161 | 4.8 | 4.8 | 0.00 | 1.57 | 1.57 | 79 | 1009.1 |
| 20260509020204 | 21 | 248 | 0.0 | 4.8 | 0.00 | 1.57 | 1.57 | 79 | 1009.1 |
| 20260509020024 | 21 | 202 | 0.0 | 6.4 | 0.00 | 1.57 | 1.57 | 79 | 1009.3 |
| 20260509015404 | 21 | 190 | 0.0 | 6.4 | 0.00 | 1.57 | 1.57 | 79 | 1009.3 |
| 20260509015204 | 21 | 158 | 1.6 | 4.8 | 0.00 | 1.57 | 1.57 | 79 | 1009.1 |
| 20260509014704 | 21 | 184 | 3.2 | 4.8 | 0.00 | 1.57 | 1.57 | 79 | 1009.1 |
| 20260509014503 | 21 | 170 | 0.0 | 6.4 | 0.00 | 1.57 | 1.57 | 79 | 1009.4 |
| 20260509014204 | 21 | 145 | 1.6 | 4.8 | 0.00 | 1.57 | 1.57 | 78 | 1009.1 |
| 20260509013704 | 21 | 160 | 1.6 | 4.8 | 0.00 | 1.57 | 1.57 | 78 | 1008.8 |
| 20260509013604 | 21 | 174 | 0.0 | 6.4 | 0.00 | 1.57 | 1.57 | 78 | 1009.1 |
| 20260509013203 | 21 | 194 | 1.6 | 4.8 | 0.00 | 1.57 | 1.57 | 77 | 1009.1 |
| 20260509012724 | 21 | 176 | 1.6 | 9.7 | 0.00 | 1.57 | 1.57 | 77 | 1009.1 |
| 20260509012703 | 21 | 153 | 3.2 | 4.8 | 0.00 | 1.57 | 1.57 | 77 | 1008.8 |
| 20260509011803 | 22 | 161 | 0.0 | 9.7 | 0.00 | 1.57 | 1.57 | 76 | 1009.1 |
| 20260509011704 | 22 | 142 | 1.6 | 9.7 | 0.00 | 1.57 | 1.57 | 76 | 1008.8 |
| 20260509011203 | 22 | 216 | 1.6 | 4.8 | 0.00 | 1.57 | 1.57 | 76 | 1008.8 |
| 20260509010903 | 22 | 255 | 1.6 | 6.4 | 0.00 | 1.57 | 1.57 | 76 | 1009.1 |
| 20260509010704 | 22 | 263 | 3.2 | 4.8 | 0.00 | 1.57 | 1.57 | 76 | 1009.1 |
| 20260509010204 | 22 | 219 | 3.2 | 4.8 | 0.00 | 1.57 | 1.57 | 76 | 1009.0 |
| 20260509010003 | 22 | 285 | 0.0 | 6.4 | 0.00 | 1.57 | 1.57 | 76 | 1009.0 |
| 20260509005704 | 22 | 193 | 1.6 | 4.8 | 0.00 | 1.57 | 1.57 | 75 | 1008.8 |
| 20260509005424 | 22 | 219 | 0.0 | 6.4 | 0.00 | 1.57 | 1.57 | 75 | 1009.0 |
| 20260509005204 | 22 | 3 | 0.0 | 4.8 | 0.00 | 1.57 | 1.57 | 75 | 1008.8 |
| 20260509004210 | 22 | 139 | 1.6 | 8.0 | 0.00 | 1.57 | 1.57 | 73 | 1008.5 |
| 20260509003704 | 22 | 193 | 1.6 | 4.8 | 0.00 | 1.57 | 1.57 | 72 | 1008.1 |
| 20260509003204 | 22 | 239 | 3.2 | 8.0 | 0.00 | 1.57 | 1.57 | 72 | 1008.1 |
| 20260509002704 | 23 | 267 | 1.6 | 8.0 | 0.00 | 1.57 | 1.57 | 71 | 1008.5 |
| 20260509002204 | 23 | 182 | 4.8 | 9.7 | 0.00 | 1.57 | 1.57 | 70 | 1008.1 |
| 20260509001704 | 23 | 179 | 3.2 | 9.7 | 0.00 | 1.57 | 1.57 | 70 | 1008.1 |
| 20260509001204 | 23 | 299 | 4.8 | 11.3 | 0.00 | 1.57 | 1.57 | 70 | 1008.5 |
| 20260509000704 | 23 | 169 | 4.8 | 11.3 | 0.00 | 1.57 | 1.57 | 69 | 1008.1 |
| 20260509000205 | 23 | 189 | 3.2 | 11.3 | 0.00 | 1.57 | 1.57 | 70 | 1008.1 |
| 20260508235704 | 23 | 168 | 4.8 | 11.3 | 0.00 | 1.57 | 1.57 | 69 | 1008.1 |
| 20260508235204 | 23 | 265 | 3.2 | 8.0 | 0.00 | 1.57 | 1.57 | 69 | 1008.5 |
| 20260508234704 | 23 | 269 | 1.6 | 9.7 | 0.00 | 1.57 | 1.57 | 69 | 1008.5 |
| 20260508234203 | 24 | 258 | 1.6 | 9.7 | 0.00 | 1.57 | 1.57 | 68 | 1008.5 |
| 20260508233704 | 24 | 157 | 8.0 | 11.3 | 0.00 | 1.57 | 1.57 | 67 | 1008.5 |
| 20260508233204 | 25 | 188 | 4.8 | 9.7 | 0.00 | 1.57 | 1.57 | 67 | 1008.5 |
| 20260508232704 | 25 | 222 | 3.2 | 8.0 | 0.00 | 1.57 | 1.57 | 68 | 1008.5 |
| 20260508232204 | 25 | 172 | 3.2 | 8.0 | 0.00 | 1.57 | 1.57 | 67 | 1008.6 |
| 20260508231704 | 25 | 263 | 4.8 | 8.0 | 0.00 | 1.57 | 1.57 | 68 | 1008.5 |
| 20260508231203 | 25 | 235 | 3.2 | 9.7 | 0.00 | 1.57 | 1.57 | 68 | 1008.8 |
| 20260508230704 | 25 | 166 | 8.0 | 11.3 | 0.00 | 1.57 | 1.57 | 67 | 1008.5 |
| 20260508230204 | 25 | 161 | 8.0 | 8.0 | 0.00 | 1.57 | 1.57 | 67 | 1008.5 |
| 20260508225704 | 25 | 213 | 3.2 | 8.0 | 0.00 | 1.57 | 1.57 | 66 | 1008.5 |
| 20260508224704 | 26 | 263 | 3.2 | 8.0 | 0.00 | 1.57 | 1.57 | 65 | 1008.8 |
| 20260508224204 | 26 | 228 | 0.0 | 8.0 | 0.00 | 1.57 | 1.57 | 63 | 1008.5 |
| 20260508223204 | 26 | 168 | 9.7 | 11.3 | 0.00 | 1.57 | 1.57 | 61 | 1008.5 |
| 20260508222704 | 26 | 194 | 1.6 | 9.7 | 0.00 | 1.57 | 1.57 | 65 | 1009.0 |
| 20260508222204 | 26 | 247 | 4.8 | 11.3 | 0.00 | 1.57 | 1.57 | 63 | 1008.5 |
| 20260508221803 | 26 | 225 | 1.6 | 9.7 | 0.00 | 1.57 | 1.57 | 62 | 1009.1 |
| 20260508221704 | 26 | 302 | 3.2 | 9.7 | 0.00 | 1.57 | 1.57 | 63 | 1008.5 |
| 20260508221203 | 26 | 257 | 3.2 | 9.7 | 0.00 | 1.57 | 1.57 | 64 | 1008.1 |
| 20260508220924 | 26 | 215 | 1.6 | 9.7 | 0.00 | 1.57 | 1.57 | 64 | 1008.8 |
| 20260508220704 | 26 | 198 | 4.8 | 9.7 | 0.00 | 1.57 | 1.57 | 65 | 1008.5 |
| 20260508220024 | 26 | 199 | 0.0 | 9.7 | 0.00 | 1.57 | 1.57 | 62 | 1008.7 |
| 20260508215704 | 26 | 196 | 3.2 | 8.0 | 0.00 | 1.57 | 1.57 | 63 | 1008.5 |
| 20260508215403 | 26 | 169 | 0.0 | 8.0 | 0.00 | 1.57 | 1.57 | 63 | 1009.1 |
| 20260508214704 | 25 | 149 | 3.2 | 11.3 | 0.00 | 1.57 | 1.57 | 64 | 1008.5 |
| 20260508214503 | 25 | 159 | 1.6 | 12.9 | 0.00 | 1.57 | 1.57 | 64 | 1008.9 |
| 20260508214204 | 25 | 172 | 4.8 | 12.9 | 0.00 | 1.57 | 1.57 | 63 | 1008.1 |
| 20260508213603 | 25 | 187 | 1.6 | 12.9 | 0.00 | 1.57 | 1.57 | 63 | 1008.7 |
| 20260508213204 | 26 | 196 | 3.2 | 9.7 | 0.00 | 1.57 | 1.57 | 63 | 1008.5 |
| 20260508212724 | 26 | 163 | 1.6 | 11.3 | 0.00 | 1.57 | 1.57 | 63 | 1008.8 |
| 20260508212704 | 26 | 167 | 3.2 | 9.7 | 0.00 | 1.57 | 1.57 | 62 | 1008.2 |
| 20260508212204 | 25 | 190 | 3.2 | 14.5 | 0.00 | 1.57 | 1.57 | 64 | 1008.8 |
| 20260508211824 | 25 | 167 | 1.6 | 14.5 | 0.00 | 1.57 | 1.57 | 62 | 1009.4 |
| 20260508211703 | 26 | 71 | 3.2 | 14.5 | 0.00 | 1.57 | 1.57 | 62 | 1009.1 |
| 20260508210903 | 25 | 222 | 0.0 | 12.9 | 0.00 | 1.57 | 1.57 | 63 | 1009.7 |
| 20260508210704 | 25 | 294 | 0.0 | 12.9 | 0.00 | 1.57 | 1.57 | 64 | 1009.5 |
| 20260508210003 | 25 | 202 | 1.6 | 9.7 | 0.00 | 1.57 | 1.57 | 65 | 1010.1 |
| 20260508205704 | 25 | 228 | 3.2 | 9.7 | 0.00 | 1.57 | 1.57 | 65 | 1009.8 |
| 20260508205403 | 25 | 199 | 1.6 | 12.9 | 0.00 | 1.57 | 1.57 | 64 | 1010.2 |
| 20260508205204 | 25 | 259 | 3.2 | 9.7 | 0.00 | 1.57 | 1.57 | 64 | 1009.8 |
| 20260508204503 | 25 | 217 | 1.6 | 12.9 | 0.00 | 1.57 | 1.57 | 63 | 1010.4 |
| 20260508204204 | 25 | 214 | 4.8 | 9.7 | 0.00 | 1.57 | 1.57 | 63 | 1010.2 |
| 20260508203704 | 26 | 235 | 4.8 | 8.0 | 0.00 | 1.57 | 1.57 | 64 | 1010.2 |
| 20260508203624 | 26 | 193 | 1.6 | 9.7 | 0.00 | 1.57 | 1.57 | 64 | 1010.7 |
| 20260508202703 | 25 | 177 | 1.6 | 9.7 | 0.00 | 1.57 | 1.57 | 66 | 1010.5 |
| 20260508202204 | 25 | 148 | 4.8 | 9.7 | 0.00 | 1.57 | 1.57 | 64 | 1010.2 |
| 20260508201803 | 25 | 206 | 1.6 | 9.7 | 0.00 | 1.57 | 1.57 | 62 | 1010.6 |
| 20260508201704 | 26 | 179 | 4.8 | 11.3 | 0.00 | 1.57 | 1.57 | 62 | 1010.2 |
| 20260508201203 | 26 | 254 | 3.2 | 12.9 | 0.00 | 1.57 | 1.57 | 61 | 1010.2 |
| 20260508200903 | 26 | 198 | 1.6 | 12.9 | 0.00 | 1.57 | 1.57 | 60 | 1010.7 |
| 20260508200204 | 26 | 149 | 4.8 | 11.3 | 0.00 | 1.57 | 1.57 | 61 | 1010.2 |
| 20260508200003 | 26 | 178 | 1.6 | 11.3 | 0.00 | 1.57 | 1.57 | 61 | 1010.8 |
| 20260508195403 | 26 | 232 | 1.6 | 9.7 | 0.00 | 1.57 | 1.57 | 61 | 1010.9 |
| 20260508195204 | 26 | 245 | 4.8 | 9.7 | 0.00 | 1.57 | 1.57 | 59 | 1010.5 |
| 20260508194704 | 26 | 239 | 3.2 | 14.5 | 0.00 | 1.57 | 1.57 | 61 | 1010.4 |
| 20260508194503 | 26 | 206 | 1.6 | 14.5 | 0.00 | 1.57 | 1.57 | 61 | 1011.0 |
| 20260508194205 | 26 | 180 | 4.8 | 14.5 | 0.00 | 1.57 | 1.57 | 60 | 1010.5 |
| 20260508193704 | 26 | 237 | 8.0 | 9.7 | 0.00 | 1.57 | 1.57 | 61 | 1010.5 |
| 20260508193603 | 26 | 213 | 1.6 | 8.0 | 0.00 | 1.57 | 1.57 | 61 | 1010.9 |
| 20260508193204 | 26 | 220 | 3.2 | 8.0 | 0.00 | 1.57 | 1.57 | 60 | 1010.5 |
| 20260508192704 | 26 | 173 | 6.4 | 11.3 | 0.00 | 1.57 | 1.57 | 62 | 1010.8 |
| 20260508192204 | 26 | 101 | 1.6 | 11.3 | 0.00 | 1.57 | 1.57 | 55 | 1010.8 |
| 20260508191803 | 26 | 206 | 1.6 | 12.9 | 0.00 | 1.57 | 1.57 | 60 | 1011.4 |
| 20260508191704 | 26 | 214 | 4.8 | 12.9 | 0.00 | 1.57 | 1.57 | 60 | 1010.8 |
| 20260508190903 | 26 | 210 | 1.6 | 9.7 | 0.00 | 1.57 | 1.57 | 60 | 1011.4 |
| 20260508190704 | 26 | 159 | 3.2 | 8.0 | 0.00 | 1.57 | 1.57 | 59 | 1010.8 |
| 20260508190204 | 25 | 190 | 4.8 | 9.7 | 0.00 | 1.57 | 1.57 | 58 | 1011.1 |
| 20260508190024 | 25 | 194 | 1.6 | 12.9 | 0.00 | 1.57 | 1.57 | 59 | 1011.3 |
| 20260508185704 | 25 | 296 | 3.2 | 12.9 | 0.00 | 1.57 | 1.57 | 60 | 1010.8 |
| 20260508184703 | 25 | 277 | 3.2 | 19.3 | 0.00 | 1.57 | 1.57 | 63 | 1010.9 |
| 20260508184204 | 25 | 27 | 3.2 | 9.7 | 0.00 | 1.57 | 1.57 | 59 | 1011.2 |
| 20260508183704 | 25 | 274 | 3.2 | 9.7 | 0.00 | 1.57 | 1.57 | 62 | 1011.5 |
| 20260508183208 | 25 | 240 | 3.2 | 8.0 | 0.00 | 1.57 | 1.57 | 61 | 1011.2 |
| 20260508182703 | 25 | 218 | 3.2 | 8.0 | 0.00 | 1.57 | 1.57 | 62 | 1011.2 |
| 20260508182204 | 24 | 187 | 1.6 | 8.0 | 0.00 | 1.57 | 1.57 | 65 | 1011.4 |
| 20260508181704 | 24 | 157 | 1.6 | 9.7 | 0.00 | 1.57 | 1.57 | 61 | 1011.9 |
| 20260508180704 | 24 | 219 | 1.6 | 11.3 | 0.00 | 1.57 | 1.57 | 64 | 1011.9 |
| 20260508180204 | 24 | 179 | 4.8 | 12.9 | 0.00 | 1.57 | 1.57 | 60 | 1011.9 |
| 20260508175704 | 23 | 150 | 1.6 | 12.9 | 0.00 | 1.57 | 1.57 | 61 | 1012.2 |
| 20260508174704 | 23 | 230 | 4.8 | 11.3 | 0.00 | 1.57 | 1.57 | 62 | 1012.2 |
| 20260508173704 | 23 | 352 | 1.6 | 4.8 | 0.00 | 1.57 | 1.57 | 64 | 1012.3 |
| 20260508173204 | 23 | 15 | 3.2 | 8.0 | 0.00 | 1.57 | 1.57 | 62 | 1012.5 |
| 20260508172704 | 23 | 158 | 1.6 | 8.0 | 0.00 | 1.57 | 1.57 | 66 | 1012.5 |
| 20260508172203 | 23 | 294 | 3.2 | 9.7 | 0.00 | 1.57 | 1.57 | 66 | 1012.9 |
| 20260508171703 | 22 | 212 | 0.0 | 9.7 | 0.00 | 1.57 | 1.57 | 67 | 1012.9 |
| 20260508171204 | 22 | 152 | 3.2 | 9.7 | 0.00 | 1.57 | 1.57 | 66 | 1012.9 |
| 20260508170704 | 22 | 212 | 6.4 | 9.7 | 0.00 | 1.57 | 1.57 | 65 | 1013.2 |
| 20260508170204 | 22 | 344 | 1.6 | 11.3 | 0.00 | 1.57 | 1.57 | 71 | 1013.2 |
| 20260508165704 | 22 | 65 | 3.2 | 11.3 | 0.00 | 1.57 | 1.57 | 69 | 1013.2 |
| 20260508164704 | 22 | 205 | 3.2 | 9.7 | 0.00 | 1.57 | 1.57 | 70 | 1013.5 |
| 20260508164503 | 22 | 178 | 1.6 | 12.9 | 0.00 | 1.57 | 1.57 | 70 | 1013.7 |
| 20260508164204 | 22 | 164 | 4.8 | 12.9 | 0.00 | 1.57 | 1.57 | 67 | 1013.6 |
| 20260508163703 | 22 | 163 | 3.2 | 11.3 | 0.00 | 1.57 | 1.57 | 70 | 1013.9 |
| 20260508163603 | 22 | 178 | 1.6 | 11.3 | 0.00 | 1.57 | 1.57 | 70 | 1014.1 |
| 20260508163204 | 22 | 170 | 3.2 | 8.0 | 0.00 | 1.57 | 1.57 | 69 | 1013.9 |
| 20260508162724 | 21 | 170 | 1.6 | 8.0 | 0.00 | 1.57 | 1.57 | 70 | 1014.2 |
| 20260508162704 | 21 | 140 | 4.8 | 8.0 | 0.00 | 1.57 | 1.57 | 71 | 1014.1 |
| 20260508161803 | 20 | 147 | 1.6 | 11.3 | 0.00 | 1.57 | 1.57 | 74 | 1014.1 |
| 20260508161705 | 20 | 353 | 1.6 | 9.7 | 0.00 | 1.57 | 1.57 | 71 | 1014.2 |
| 20260508160924 | 21 | 196 | 0.0 | 11.3 | 0.00 | 1.57 | 1.57 | 69 | 1014.6 |
| 20260508160704 | 21 | 280 | 1.6 | 9.7 | 0.00 | 1.57 | 1.57 | 70 | 1014.2 |
| 20260508160204 | 20 | 207 | 1.6 | 4.8 | 0.00 | 1.57 | 1.57 | 72 | 1014.2 |
| 20260508160003 | 20 | 179 | 1.6 | 6.4 | 0.00 | 1.57 | 1.57 | 72 | 1014.4 |
| 20260508155704 | 20 | 153 | 4.8 | 4.8 | 0.00 | 1.57 | 1.57 | 74 | 1014.2 |
| 20260508155424 | 20 | 172 | 1.6 | 6.4 | 0.00 | 1.57 | 1.57 | 73 | 1014.5 |
| 20260508154705 | 20 | 218 | 3.2 | 3.2 | 0.00 | 1.57 | 1.57 | 75 | 1014.6 |
| 20260508154503 | 20 | 251 | 0.0 | 6.4 | 0.00 | 1.57 | 1.57 | 75 | 1014.8 |
| 20260508154203 | 20 | 252 | 1.6 | 4.8 | 0.00 | 1.57 | 1.57 | 76 | 1014.6 |
| 20260508153704 | 20 | 44 | 1.6 | 9.7 | 0.00 | 1.57 | 1.57 | 76 | 1014.6 |
| 20260508153603 | 20 | 37 | 0.0 | 12.9 | 0.00 | 1.57 | 1.57 | 76 | 1014.6 |
| 20260508153204 | 20 | 151 | 4.8 | 12.9 | 0.00 | 1.57 | 1.57 | 72 | 1014.6 |
| 20260508152724 | 20 | 32 | 0.0 | 12.9 | 0.00 | 1.57 | 1.57 | 75 | 1014.6 |
| 20260508152704 | 20 | 38 | 3.2 | 12.9 | 0.00 | 1.57 | 1.57 | 76 | 1014.5 |
| 20260508152204 | 19 | 313 | 1.6 | 4.8 | 0.00 | 1.57 | 1.57 | 84 | 1014.6 |
| 20260508151803 | 19 | 156 | 1.6 | 6.4 | 0.00 | 1.57 | 1.57 | 80 | 1014.6 |
| 20260508151203 | 19 | 247 | 3.2 | 8.0 | 0.00 | 1.57 | 1.57 | 79 | 1014.6 |
| 20260508150903 | 18 | 141 | 1.6 | 6.4 | 0.00 | 1.57 | 1.57 | 79 | 1014.6 |
| 20260508150704 | 18 | 159 | 4.8 | 4.8 | 0.00 | 1.57 | 1.57 | 80 | 1014.6 |
| 20260508150204 | 18 | 168 | 3.2 | 4.8 | 0.00 | 1.57 | 1.57 | 81 | 1014.9 |
| 20260508150004 | 18 | 110 | 0.0 | 6.4 | 0.00 | 1.57 | 1.57 | 81 | 1014.8 |
| 20260508145704 | 18 | 151 | 3.2 | 4.8 | 0.00 | 1.57 | 1.57 | 79 | 1014.9 |
| 20260508145403 | 18 | 16 | 0.0 | 4.8 | 0.00 | 1.57 | 1.57 | 80 | 1014.8 |
| 20260508145204 | 18 | 29 | 0.0 | 4.8 | 0.03 | 1.57 | 1.57 | 81 | 1014.9 |
| 20260508144709 | 18 | 179 | 1.6 | 8.0 | 0.03 | 1.57 | 1.57 | 84 | 1015.0 |
| 20260508144503 | 18 | 154 | 0.0 | 8.0 | 0.00 | 1.57 | 1.57 | 84 | 1014.9 |
| 20260508144204 | 18 | 160 | 4.8 | 8.0 | 0.03 | 1.57 | 1.57 | 86 | 1014.9 |
| 20260508143704 | 18 | 119 | 0.0 | 4.8 | 0.03 | 1.57 | 1.57 | 86 | 1014.9 |
| 20260508143603 | 18 | 77 | 0.0 | 4.8 | 0.00 | 1.57 | 1.57 | 86 | 1014.9 |
| 20260508143204 | 18 | 23 | 1.6 | 4.8 | 0.03 | 1.57 | 1.57 | 87 | 1015.0 |
| 20260508142704 | 17 | 75 | 1.6 | 4.8 | 0.03 | 1.57 | 1.57 | 89 | 1015.2 |
| 20260508142204 | 17 | 156 | 3.2 | 4.8 | 0.03 | 1.57 | 1.57 | 90 | 1015.2 |
| 20260508141803 | 17 | 300 | 0.0 | 4.8 | 0.03 | 1.57 | 1.57 | 90 | 1015.1 |
| 20260508141704 | 17 | 327 | 1.6 | 4.8 | 0.03 | 1.57 | 1.57 | 90 | 1015.2 |
| 20260508141204 | 17 | 249 | 3.2 | 4.8 | 0.03 | 1.57 | 1.57 | 88 | 1015.2 |
| 20260508140903 | 17 | 100 | 0.0 | 4.8 | 0.03 | 1.57 | 1.57 | 90 | 1015.1 |
| 20260508140704 | 17 | 39 | 3.2 | 4.8 | 0.03 | 1.57 | 1.57 | 91 | 1015.2 |
| 20260508140204 | 17 | 131 | 3.2 | 4.8 | 0.03 | 1.57 | 1.57 | 92 | 1015.2 |
| 20260508140003 | 17 | 142 | 0.0 | 4.8 | 0.03 | 1.57 | 1.57 | 92 | 1015.0 |
| 20260508135704 | 16 | 82 | 0.0 | 3.2 | 0.03 | 1.57 | 1.57 | 94 | 1015.2 |
| 20260508135403 | 16 | 189 | 0.0 | 3.2 | 0.03 | 1.57 | 1.57 | 95 | 1015.2 |
| 20260508135204 | 16 | 244 | 0.0 | 3.2 | 0.00 | 1.55 | 1.55 | 95 | 1015.2 |
| 20260508134704 | 16 | 13 | 1.6 | 3.2 | 0.00 | 1.55 | 1.55 | 95 | 1015.5 |
| 20260508133704 | 16 | 119 | 3.2 | 9.7 | 0.00 | 1.55 | 1.55 | 97 | 1015.2 |
| 20260508133204 | 16 | 182 | 3.2 | 4.8 | 0.03 | 1.55 | 1.55 | 97 | 1015.2 |
| 20260508132704 | 16 | 177 | 0.0 | 4.8 | 0.03 | 1.55 | 1.55 | 97 | 1015.2 |
| 20260508132203 | 15 | 149 | 3.2 | 8.0 | 0.03 | 1.55 | 1.55 | 97 | 1014.9 |
| 20260508130204 | 15 | 228 | 1.6 | 3.2 | 0.05 | 1.55 | 1.55 | 97 | 1015.6 |
| 20260508125704 | 15 | 125 | 1.6 | 4.8 | 0.05 | 1.55 | 1.55 | 97 | 1015.6 |
| 20260508124704 | 15 | 320 | 1.6 | 4.8 | 0.05 | 1.55 | 1.55 | 97 | 1015.9 |
| 20260508124203 | 15 | 299 | 3.2 | 4.8 | 0.05 | 1.55 | 1.55 | 97 | 1015.9 |
| 20260508123704 | 15 | 144 | 1.6 | 4.8 | 0.05 | 1.55 | 1.55 | 97 | 1015.7 |
| 20260508123204 | 15 | 114 | 0.0 | 3.2 | 0.03 | 1.52 | 1.52 | 97 | 1015.7 |
| 20260508122704 | 15 | 121 | 1.6 | 1.6 | 0.03 | 1.52 | 1.52 | 97 | 1015.6 |
| 20260508122204 | 15 | 131 | 0.0 | 3.2 | 0.25 | 1.52 | 1.52 | 97 | 1015.6 |
| 20260508121704 | 15 | 107 | 0.0 | 3.2 | 0.30 | 1.50 | 1.50 | 97 | 1015.9 |
| 20260508121204 | 15 | 51 | 1.6 | 3.2 | 0.41 | 1.50 | 1.50 | 97 | 1015.6 |
| 20260508120703 | 15 | 156 | 3.2 | 4.8 | 0.48 | 1.50 | 1.50 | 97 | 1015.6 |
| 20260508120203 | 15 | 131 | 0.0 | 3.2 | 0.64 | 1.50 | 1.50 | 97 | 1015.6 |
| 20260508115703 | 15 | 230 | 0.0 | 11.3 | 0.64 | 1.50 | 1.50 | 97 | 1015.6 |
| 20260508115205 | 15 | 185 | 3.2 | 11.3 | 0.74 | 1.50 | 1.50 | 97 | 1015.5 |
| 20260508114704 | 15 | 143 | 4.8 | 8.0 | 0.97 | 1.50 | 1.50 | 97 | 1015.6 |
| 20260508114204 | 15 | 198 | 0.0 | 4.8 | 0.97 | 1.50 | 1.50 | 97 | 1015.2 |
| 20260508113704 | 15 | 58 | 3.2 | 4.8 | 0.97 | 1.50 | 1.50 | 97 | 1015.2 |
| 20260508113603 | 15 | 287 | 1.6 | 11.3 | 0.97 | 1.50 | 1.50 | 97 | 1014.9 |
| 20260508113204 | 15 | 64 | 3.2 | 11.3 | 0.99 | 1.50 | 1.50 | 97 | 1015.2 |
| 20260508112703 | 15 | 171 | 1.6 | 11.3 | 1.02 | 1.50 | 1.50 | 97 | 1015.0 |
| 20260508112204 | 15 | 85 | 3.2 | 8.0 | 0.81 | 1.27 | 1.27 | 97 | 1014.9 |
| 20260508111803 | 15 | 124 | 1.6 | 6.4 | 0.84 | 1.24 | 1.24 | 97 | 1014.9 |
| 20260508111703 | 15 | 150 | 4.8 | 8.0 | 0.81 | 1.19 | 1.19 | 97 | 1015.2 |
| 20260508111204 | 15 | 92 | 3.2 | 4.8 | 0.71 | 1.09 | 1.09 | 96 | 1015.7 |
| 20260508110903 | 15 | 109 | 0.0 | 4.8 | 0.69 | 1.07 | 1.07 | 96 | 1015.6 |
| 20260508110704 | 15 | 239 | 3.2 | 3.2 | 0.64 | 1.02 | 1.02 | 96 | 1015.6 |
| 20260508110204 | 15 | 138 | 0.0 | 3.2 | 0.48 | 0.86 | 0.86 | 96 | 1015.9 |
| 20260508110024 | 15 | 360 | 0.0 | 8.0 | 0.48 | 0.86 | 0.86 | 96 | 1015.4 |
| 20260508105704 | 15 | 10 | 3.2 | 8.0 | 0.48 | 0.86 | 0.86 | 96 | 1015.9 |
| 20260508105403 | 15 | 16 | 1.6 | 8.0 | 0.41 | 0.79 | 0.79 | 96 | 1015.7 |
| 20260508105204 | 15 | 336 | 8.0 | 8.0 | 0.38 | 0.76 | 0.76 | 96 | 1015.9 |
| 20260508104704 | 15 | 133 | 3.2 | 3.2 | 0.15 | 0.53 | 0.53 | 96 | 1015.9 |
| 20260508104503 | 15 | 285 | 0.0 | 4.8 | 0.18 | 0.56 | 0.56 | 96 | 1015.5 |
| 20260508104203 | 15 | 278 | 3.2 | 4.8 | 0.15 | 0.53 | 0.53 | 95 | 1016.0 |
| 20260508103704 | 15 | 316 | 3.2 | 4.8 | 0.15 | 0.53 | 0.53 | 95 | 1015.6 |
| 20260508103603 | 15 | 338 | 1.6 | 11.3 | 0.15 | 0.53 | 0.53 | 95 | 1015.2 |
| 20260508103204 | 15 | 96 | 3.2 | 11.3 | 0.13 | 0.51 | 0.51 | 95 | 1015.2 |
| 20260508102724 | 15 | 302 | 1.6 | 11.3 | 0.10 | 0.48 | 0.48 | 96 | 1015.5 |
| 20260508102704 | 15 | 314 | 8.0 | 11.3 | 0.10 | 0.48 | 0.48 | 96 | 1015.8 |
| 20260508102204 | 15 | 275 | 1.6 | 4.8 | 0.10 | 0.46 | 0.46 | 96 | 1014.9 |
| 20260508101803 | 15 | 193 | 0.0 | 3.2 | 0.05 | 0.41 | 0.41 | 96 | 1014.3 |
| 20260508101704 | 15 | 182 | 1.6 | 3.2 | 0.03 | 0.38 | 0.38 | 96 | 1014.6 |
| 20260508100903 | 15 | 218 | 0.0 | 4.8 | 0.03 | 0.38 | 0.38 | 96 | 1014.1 |
| 20260508100205 | 15 | 193 | 1.6 | 4.8 | 0.05 | 0.38 | 0.38 | 96 | 1013.9 |
| 20260508100003 | 15 | 278 | 0.0 | 4.8 | 0.03 | 0.38 | 0.38 | 96 | 1013.6 |
| 20260508095704 | 15 | 307 | 1.6 | 3.2 | 0.05 | 0.38 | 0.38 | 96 | 1014.2 |
| 20260508095403 | 15 | 288 | 0.0 | 4.8 | 0.03 | 0.38 | 0.38 | 96 | 1014.1 |
| 20260508095204 | 15 | 334 | 1.6 | 3.2 | 0.05 | 0.38 | 0.38 | 96 | 1014.2 |
| 20260508094704 | 15 | 229 | 0.0 | 8.0 | 0.05 | 0.38 | 0.38 | 96 | 1014.6 |
| 20260508094503 | 15 | 185 | 0.0 | 6.4 | 0.03 | 0.38 | 0.38 | 96 | 1014.2 |
| 20260508094204 | 15 | 156 | 3.2 | 8.0 | 0.05 | 0.38 | 0.38 | 96 | 1014.6 |
| 20260508093603 | 15 | 304 | 0.0 | 6.4 | 0.03 | 0.38 | 0.38 | 96 | 1014.5 |
| 20260508093203 | 15 | 339 | 4.8 | 4.8 | 0.05 | 0.38 | 0.38 | 96 | 1014.6 |
| 20260508092704 | 15 | 117 | 1.6 | 4.8 | 0.05 | 0.38 | 0.38 | 96 | 1014.6 |
| 20260508091803 | 15 | 131 | 1.6 | 8.0 | 0.03 | 0.36 | 0.36 | 95 | 1014.2 |
| 20260508091704 | 15 | 146 | 8.0 | 8.0 | 0.05 | 0.36 | 0.36 | 95 | 1014.6 |
| 20260508090903 | 15 | 144 | 0.0 | 4.8 | 0.15 | 0.36 | 0.36 | 95 | 1014.3 |
| 20260508090204 | 15 | 128 | 1.6 | 3.2 | 0.30 | 0.33 | 0.33 | 94 | 1015.2 |
| 20260508090003 | 15 | 311 | 0.0 | 6.4 | 0.33 | 0.36 | 0.36 | 93 | 1014.9 |
| 20260508085704 | 15 | 285 | 1.6 | 4.8 | 0.33 | 0.33 | 0.33 | 93 | 1015.2 |
| 20260508085403 | 15 | 316 | 1.6 | 9.7 | 0.36 | 0.36 | 0.36 | 93 | 1014.7 |
| 20260508085204 | 15 | 349 | 1.6 | 9.7 | 0.33 | 0.33 | 0.33 | 93 | 1014.9 |
| 20260508084704 | 15 | 307 | 4.8 | 9.7 | 0.33 | 0.33 | 0.33 | 93 | 1015.2 |
| 20260508084504 | 15 | 193 | 1.6 | 8.0 | 0.36 | 0.36 | 0.36 | 94 | 1014.8 |
| 20260508083603 | 15 | 159 | 1.6 | 8.0 | 0.36 | 0.36 | 0.36 | 94 | 1014.5 |
| 20260508083205 | 15 | 134 | 3.2 | 8.0 | 0.33 | 0.33 | 0.33 | 94 | 1014.9 |
| 20260508082204 | 15 | 183 | 1.6 | 4.8 | 0.33 | 0.33 | 0.33 | 93 | 1015.2 |
| 20260508081704 | 15 | 222 | 1.6 | 11.3 | 0.30 | 0.30 | 0.30 | 92 | 1015.2 |
| 20260508081204 | 15 | 179 | 4.8 | 11.3 | 0.20 | 0.20 | 0.20 | 90 | 1015.2 |
| 20260508080703 | 15 | 78 | 1.6 | 4.8 | 0.10 | 0.10 | 0.10 | 89 | 1016.2 |
| 20260508080204 | 15 | 305 | 1.6 | 3.2 | 0.03 | 0.03 | 0.03 | 88 | 1016.3 |
| 20260508075704 | 15 | 352 | 0.0 | 4.8 | 0.00 | 0.00 | 0.00 | 88 | 1016.3 |
| 20260508075204 | 15 | 278 | 4.8 | 4.8 | 0.00 | 0.00 | 0.00 | 90 | 1016.6 |
| 20260508074704 | 15 | 293 | 3.2 | 4.8 | 0.00 | 0.00 | 0.00 | 91 | 1016.3 |
| 20260508074203 | 14 | 142 | 1.6 | 3.2 | 0.00 | 0.00 | 0.00 | 91 | 1015.9 |
| 20260508073203 | 14 | 18 | 0.0 | 3.2 | 0.00 | 0.00 | 0.00 | 92 | 1015.9 |
| 20260508072703 | 14 | 237 | 1.6 | 3.2 | 0.00 | 0.00 | 0.00 | 93 | 1015.9 |
| 20260508072204 | 14 | 143 | 1.6 | 3.2 | 0.00 | 0.00 | 0.00 | 93 | 1015.9 |
| 20260508071705 | 14 | 293 | 1.6 | 3.2 | 0.00 | 0.00 | 0.00 | 93 | 1016.3 |
| 20260508071205 | 13 | 325 | 1.6 | 3.2 | 0.00 | 0.00 | 0.00 | 93 | 1015.9 |
| 20260508070704 | 13 | 259 | 1.6 | 3.2 | 0.00 | 0.00 | 0.00 | 92 | 1016.2 |
| 20260508065703 | 13 | 64 | 0.0 | 3.2 | 0.00 | 0.00 | 0.00 | 92 | 1016.3 |
| 20260508065204 | 13 | 99 | 1.6 | 3.2 | 0.00 | 0.00 | 0.00 | 92 | 1016.6 |
| 20260508064504 | 13 | 346 | 0.0 | 4.8 | 0.00 | 0.00 | 0.00 | 91 | 1016.1 |
| 20260508064204 | 13 | 1 | 1.6 | 3.2 | 0.00 | 0.00 | 0.00 | 91 | 1016.9 |
| 20260508063704 | 13 | 322 | 1.6 | 3.2 | 0.00 | 0.00 | 0.00 | 91 | 1016.9 |
| 20260508063204 | 13 | 355 | 0.0 | 1.6 | 0.00 | 0.00 | 0.00 | 90 | 1016.6 |
| 20260508062703 | 13 | 34 | 0.0 | 3.2 | 0.00 | 0.00 | 0.00 | 90 | 1016.2 |
| 20260508062204 | 14 | 11 | 0.0 | 3.2 | 0.00 | 0.00 | 0.00 | 89 | 1016.8 |
| 20260508061704 | 14 | 292 | 0.0 | 3.2 | 0.00 | 0.00 | 0.00 | 89 | 1016.6 |
| 20260508061204 | 14 | 278 | 0.0 | 3.2 | 0.00 | 0.00 | 0.00 | 89 | 1016.3 |
| 20260508060924 | 14 | 10 | 0.0 | 3.2 | 0.00 | 0.00 | 0.00 | 89 | 1015.9 |
| 20260508060204 | 14 | 186 | 0.0 | 3.2 | 0.00 | 0.00 | 0.00 | 89 | 1016.6 |
| 20260508060003 | 14 | 216 | 0.0 | 3.2 | 0.00 | 0.00 | 0.00 | 89 | 1016.1 |
| 20260508055704 | 14 | 247 | 0.0 | 3.2 | 0.00 | 0.00 | 0.00 | 90 | 1016.6 |
| 20260508055403 | 14 | 188 | 0.0 | 3.2 | 0.00 | 0.00 | 0.00 | 90 | 1016.1 |
| 20260508055204 | 14 | 164 | 0.0 | 3.2 | 0.00 | 0.00 | 0.00 | 89 | 1016.3 |
| 20260508054704 | 14 | 148 | 1.6 | 3.2 | 0.00 | 0.00 | 0.00 | 89 | 1016.3 |
| 20260508054503 | 14 | 127 | 0.0 | 3.2 | 0.00 | 0.00 | 0.00 | 89 | 1016.0 |
| 20260508054204 | 14 | 72 | 0.0 | 3.2 | 0.00 | 0.00 | 0.00 | 90 | 1016.3 |
| 20260508053603 | 14 | 171 | 0.0 | 3.2 | 0.00 | 0.00 | 0.00 | 90 | 1016.2 |
| 20260508053204 | 14 | 126 | 0.0 | 3.2 | 0.00 | 0.00 | 0.00 | 89 | 1016.6 |
| 20260508052703 | 14 | 326 | 1.6 | 3.2 | 0.00 | 0.00 | 0.00 | 89 | 1016.6 |
| 20260508052204 | 15 | 4 | 1.6 | 3.2 | 0.00 | 0.00 | 0.00 | 88 | 1016.9 |
| 20260508051803 | 15 | 7 | 0.0 | 4.8 | 0.00 | 0.00 | 0.00 | 88 | 1016.6 |
| 20260508051704 | 15 | 355 | 0.0 | 3.2 | 0.00 | 0.00 | 0.00 | 87 | 1016.6 |
| 20260508051204 | 15 | 194 | 1.6 | 1.6 | 0.00 | 0.00 | 0.00 | 87 | 1016.9 |
| 20260508050903 | 15 | 58 | 0.0 | 3.2 | 0.00 | 0.00 | 0.00 | 87 | 1016.2 |
| 20260508050704 | 15 | 39 | 0.0 | 1.6 | 0.00 | 0.00 | 0.00 | 87 | 1016.3 |
| 20260508050204 | 15 | 193 | 0.0 | 3.2 | 0.00 | 0.43 | 0.00 | 87 | 1016.6 |
| 20260508050003 | 15 | 207 | 0.0 | 3.2 | 0.00 | 0.00 | 0.00 | 87 | 1016.1 |
| 20260508045704 | 15 | 208 | 0.0 | 3.2 | 0.00 | 0.43 | 0.00 | 87 | 1016.6 |
| 20260508045403 | 15 | 259 | 0.0 | 3.2 | 0.00 | 0.00 | 0.00 | 87 | 1016.2 |
| 20260508045203 | 15 | 232 | 0.0 | 1.6 | 0.00 | 0.43 | 0.00 | 86 | 1016.6 |
| 20260508044703 | 15 | 296 | 3.2 | 3.2 | 0.00 | 0.43 | 0.00 | 87 | 1016.6 |
| 20260508044524 | 15 | 310 | 0.0 | 3.2 | 0.00 | 0.00 | 0.00 | 87 | 1016.0 |
| 20260508044204 | 15 | 322 | 0.0 | 3.2 | 0.00 | 0.43 | 0.00 | 86 | 1016.3 |
| 20260508043704 | 15 | 341 | 0.0 | 1.6 | 0.00 | 0.43 | 0.00 | 86 | 1016.3 |
| 20260508043603 | 15 | 326 | 0.0 | 3.2 | 0.00 | 0.00 | 0.00 | 86 | 1016.0 |
| 20260508043204 | 15 | 323 | 1.6 | 1.6 | 0.00 | 0.43 | 0.00 | 86 | 1016.6 |
| 20260508042703 | 15 | 285 | 0.0 | 3.2 | 0.00 | 0.00 | 0.00 | 86 | 1016.1 |
| 20260508042204 | 15 | 310 | 0.0 | 3.2 | 0.00 | 0.43 | 0.00 | 86 | 1016.6 |
| 20260508041824 | 15 | 298 | 0.0 | 3.2 | 0.00 | 0.00 | 0.00 | 85 | 1016.1 |
| 20260508041704 | 15 | 288 | 1.6 | 3.2 | 0.00 | 0.43 | 0.00 | 85 | 1016.5 |
| 20260508041204 | 15 | 315 | 0.0 | 1.6 | 0.00 | 0.43 | 0.00 | 84 | 1016.6 |
| 20260508040903 | 15 | 325 | 0.0 | 3.2 | 0.00 | 0.00 | 0.00 | 84 | 1016.2 |
| 20260508040204 | 15 | 351 | 1.6 | 3.2 | 0.00 | 0.43 | 0.00 | 84 | 1016.6 |
| 20260508040004 | 15 | 197 | 0.0 | 3.2 | 0.00 | 0.00 | 0.00 | 83 | 1016.2 |
| 20260508035704 | 15 | 231 | 0.0 | 1.6 | 0.00 | 0.43 | 0.00 | 84 | 1016.6 |
| 20260508035403 | 15 | 349 | 0.0 | 3.2 | 0.00 | 0.00 | 0.00 | 84 | 1016.2 |
| 20260508035204 | 15 | 37 | 0.0 | 1.6 | 0.00 | 0.43 | 0.00 | 83 | 1016.3 |
| 20260508034704 | 15 | 282 | 1.6 | 1.6 | 0.00 | 0.43 | 0.00 | 82 | 1016.3 |
| 20260508034204 | 15 | 62 | 0.0 | 1.6 | 0.00 | 0.43 | 0.00 | 82 | 1016.6 |
| 20260508033704 | 15 | 0 | 0.0 | 1.6 | 0.00 | 0.43 | 0.00 | 81 | 1016.3 |
| 20260508033204 | 15 | 262 | 0.0 | 3.2 | 0.00 | 0.43 | 0.00 | 81 | 1016.6 |